FENGYUN 1C DEB, 31734

Orbit data source: Space-Track

FENGYUN 1C DEB, 31734 is space debris in SSO originally from a launch on Mon, 10 May 1999 UTC launched from the Taiyaun Space Center, China (TSC). Fengyun 1C debris stems from the Chinese weather satellite Fengyun-1C, which was intentionally destroyed by a Chinese anti-satellite missile in 2007. This event dramatically increased the amount of space debris, with thousands of trackable fragments posing hazards to satellites and human spaceflight. The Fengyun 1C debris cloud has become a focal point in discussions about space sustainability and the need for international regulations to prevent the creation of new debris.

Loading next visibility...
Identifier
31734, 1999-025CEH
Orbit
SSO
Country
Flag of CNCN / PRC
Related business
Manufacturer
Unknown
Mission
Spacecraft
Bus & Motor
Unknown
Mass
Unknown
Launch date (UTC)
1999-05-10 (27 years ago)
Launch vehicle
Unknown
Launch site
Taiyaun Space Center, China (TSC)
Object type
Payload
Rocket body
Debris
Shape & HBR
Unknown shape, 0.1 m
Radar Cross Section
Small (<0.1 m²)

Expand to show TLE details & history
Last TLE update: 2 days ago

TLE from 2 days ago
0 FENGYUN 1C DEB
1 31734U 99025CEH 26174.69182455  .00000525  00000-0  21011-3 0  9993
2 31734  98.5063 167.1902 0103321 158.3095 202.2511 14.29430820992071
Epoch: 2026-06-23T16:36Z
TLE epoch observation values (Epoch: 2026-06-23T16:36:13.641Z)
Latitude
-0.00001°
Longitude
6.27362°
Altitude
865.272 km
Speed
7.384 km/s
True Right ascension
11h 08m 45s
True Declination
0° 00' 00"
Sunlit
Object was in daylight at epoch
Visualization orbit readout
Latitude
Unknown
Longitude
Unknown
Altitude
Unknown
Speed
Unknown
Apparent Right ascension
Unknown
Apparent Declination
Unknown
Sunlit
N/A
Visualization observer readout
Local Sidereal Time
01:56:53
Azimuth
Unknown
Elevation
Unknown
Doppler factor
Unknown
Orbital elements
Apogee altitude
864.84 km
Perigee altitude
716.7 km
Semi-major axis
7,168.907 km
Eccentricity
0.01033
Inclination
98.5063°
RAAN
167.1902°
Arg. of periapsis
158.3095°
True anomaly
201.80807°
Mean anomaly
202.2511°
Eccentric anomaly
202.02906°
Mean motion
3.57572 °/min
Orbital period
100.68 mins
BSTAR
0.00021011
Loading maneuver chart data...
Computing Atmospheric mass density...

Documentation

Showing up to 5 results
|